sat.trackr.live / text

‹ back to catalog

STARLINK-3908

NORAD 52491 · 2022-049AS

PAYLOAD ACTIVE UNKNOWN

§ Identity

Operator
Country
US
Launch date
2022-05-06
Launch site
AFETR
Launch vehicle
Mass (kg)
RCS (m²)

Purposes: comms

External: N2YO · Heavens-Above · Gunter

§ Orbital elements

Epoch: 2026-05-25T01:51:38.977344Z

Period
95.44 min
Inclination
53.2126°
Eccentricity
0.0001449
Mean motion
15.08831826 rev/d
Perigee alt
538.8 km
Apogee alt
540.8 km
Semi-major
6,917.9 km
B*
1.0258e-5
RAAN
66.2019°
Arg perigee
81.2647°
Mean anomaly
278.8509°
Rev number
22,392

§ Raw data

STARLINK-39081 52491U 22049AS  26145.07753446 -.00000125  00000+0  10258-4 0  99902 52491  53.2126  66.2019 0001449  81.2647 278.8509 15.08831826223921

JSON: /api/v1/satellites/52491 · /tle

For live sub-satellite position, see the globe view (requires WebGL).

§ Visibility from observer

Set your observer location to see the next 7 days of passes ≥ 10°. The values pass through the URL so the page stays shareable.

No JS? Fill the form by hand. The geolocation button needs JavaScript.